Αρχική σελίδα
METAR-TAF:

METAR-TAF

Αεροδρόμια :

Council Bluffs, Αϊόβα, Ηνωμένες Πολιτείες Αμερικής

γεωγραφικό πλάτος: 41-16N, γεωγραφικό μήκος: 095-46W, υψόμετρο: 382 μ

Παρών καιρός

Η αναφορά έγινε 22 λεπτά πριν, στις 01:35 UTC
Άνεμος 10 kt από Β με ριπές μέχρι 16 kt
Θερμοκρασία -6°C
Υγρασία 93%
Πίεση 1030 hPa
Ορατότητα: 4.0 χλμ
Νεφοσκεπής σε ύψος 2300 πόδια
Ασθενές χιόνι

METAR: KCBF 180135Z AUTO 01010G16KT 2 1/2SM -SN OVC023 M06/M07 A3041 RMK AO2

Χρόνος: 19:57 (01:57 UTC)


TAF: λείπει

Μετεωρολογικές αναφορές και προγνώσεις για περισσότερα από 4000 αεροδρόμια (δελτία METAR και TAF).

Οι διαθέσιμοι σταθμοί απεικονίζονται στο χάρτη με κίτρινες και κόκκινες κουκκίδες.

Μετακινήστε το ποντίκι πάνω από τις κουκκίδες για να δείτε το όνομα του σταθμού.

Στη συνέχεια, κάντε κλικ για να δείτε τις μετεωρολογικές αναφορές και τις προγνώσεις καιρού.

Για να αλλάξετε το χάρτη: κάντε κλικ στα πράσινα κουμπιά με τον μαύρο σταυρό για να ζουμάρετε, στο πράσινο κουμπί με την παύλα για να αφαιρέσετε το ζουμ ή στα πράσινα βέλη για να αντιπαραβάλλετε χάρτες.


METAR-TAF: